19:09
Airports
History
Links
Donate
Help keep this website running!
PayPal
Bitcoin
This page is community maintained. The information is intended for PC simulator navigation or reference.
Always use approved charts for navigation.
ENMH
Mehamn
Mehamn (ENMH)
Finnmark, Norway (9770)
(C)
Lat/Lng:71° 1' 46.26" N / 27° 49' 35.88" E
71.029518 / 27.826632
Elevation:39'ft / 12mMSL
ID / ICAO:ENMH
Runways:1
Longest:36-18
Asphalt 885m / 2,904ft
Controlled:Yes
METAR12:20 GMT 2017-11-18
Altimeter: 29.50
Visibility: 2.5 statute miles
Wind: 4 knots (from 150°)
Temp: 0°c / 32°f
Humidity: %

METAR: ENMH 181220Z 15004KT 4000 SHSN BKN015 00/M01 Q0999

(Powered by phpweather)
Nearby VORs <50NM
Nearby NDBs
Runway 36 / 18
Dimensions:885.1 x 29.9m 2904' x 98'ft
Surface:Asphalt
Edge Lights:Medium intensity
Runway 36 [A]Runway 18 [B]
Heading:003°TH 183°TH
Lat:
Lng:
71° 1' 32.04"N
27° 49' 33.12"E
71° 2' 0.49"N
27° 49' 38.63"E
ALS:RAILRAIL
User Notes and Comments
71° 1' 46.26" N / 27° 49' 35.88" E
Distance To
Airport ID:
Nearby Airports
(C) Berlevaag 29.3 NM
ENBV ESE 111°
(C) Honningsvaag Valan 41.4 NM
ENHV ( WX ) W 268°
(C) BATSFJORD 51.8 NM
ENBS SE 124°
(C) Vadso 81.2 NM
ENVD SE 145°
(C) SVARTNES 87.0 NM
ENSS ESE 122°
(C) BANAK 93.3 NM
ENNA ( WX ) SW 224°
(C) Hammerfest 97.3 NM
ENHF ( WX ) WSW 255°
VFR Chart
Flight Planning at SkyVector.com